START_TIME,STEP,MOV.,M34,t_acc.,L5,t_acc.,L18,t_acc.,L14,t_acc.
1979-07-27 18:00:23.940 ,0,1,0.,12.0,0.,12.0,0.,12.0,0.,12.0
1979-07-27 18:00:35.940 ,0,1,0.,12.0,0.,12.0,0.,12.0,0.,12.0
1979-07-27 18:00:47.940 ,3,1,0.,12.0,0.,12.0,0.,12.0,0.,12.0
1979-07-27 18:00:59.940 ,3,1,0.,12.0,0.,12.0,0.,12.0,0.,12.0
1979-07-27 18:01:11.940 ,7,1,0.,12.0,0.,12.0,0.,12.0,0.,12.0
1979-07-27 18:01:23.940 ,7,1,0.,12.0,0.,12.0,0.,12.0,0.,12.0
1979-07-27 18:01:35.940 ,4,1,0.,12.0,0.,12.0,0.,12.0,0.,12.0
1979-07-27 18:01:47.940 ,4,1,0.,12.0,0.,12.0,0.,12.0,0.,12.0
1979-07-27 18:01:59.940 ,0,1,0.,12.0,0.,12.0,0.,12.0,0.,12.0
1979-07-27 18:02:11.940 ,0,1,0.,12.0,0.,12.0,0.,12.0,0.,12.0
1979-07-27 18:02:23.940 ,3,1,0.,12.0,0.,12.0,0.,12.0,0.,12.0
1979-07-27 18:02:35.940 ,3,1,0.,12.0,0.,12.0,0.,12.0,0.,12.0
1979-07-27 18:02:47.940 ,7,1,0.,12.0,0.,12.0,0.,12.0,0.,12.0
1979-07-27 18:02:59.940 ,7,1,0.,12.0,0.,12.0,0.,12.0,0.,12.0
1979-07-27 18:03:11.940 ,4,1,0.,12.0,0.,12.0,0.,12.0,0.,12.0
1979-07-27 18:03:23.940 ,4,1,0.,12.0,0.,12.0,0.,12.0,0.,12.0
1979-07-27 18:03:35.940 ,0,1,0.,12.0,0.,12.0,0.,12.0,0.,12.0
1979-07-27 18:03:47.940 ,0,1,0.,12.0,0.,12.0,0.,12.0,0.,12.0
1979-07-27 18:03:59.940 ,3,1,0.,12.0,0.,12.0,0.,12.0,0.,12.0
1979-07-27 18:04:11.940 ,3,1,0.,12.0,0.,12.0,0.,12.0,0.,12.0
1979-07-27 18:04:23.940 ,7,1,0.,12.0,0.,12.0,0.,12.0,0.,12.0
1979-07-27 18:04:35.940 ,7,1,0.,12.0,0.,12.0,0.,12.0,0.,12.0
1979-07-27 18:04:47.940 ,4,1,0.,12.0,0.,12.0,0.,12.0,0.,12.0
1979-07-27 18:04:59.940 ,4,1,0.,12.0,0.,12.0,0.,12.0,0.,12.0
1979-07-27 18:05:11.940 ,0,1,0.,12.0,0.,12.0,0.,12.0,0.,12.0
1979-07-27 18:05:23.940 ,0,1,0.,12.0,0.,12.0,0.,12.0,0.,12.0
1979-07-27 18:05:35.940 ,0,0,0.,12.0,0.,12.0,0.,12.0,0.,12.0
1979-07-27 18:05:47.940 ,0,0,0.,12.0,0.,12.0,0.,12.0,0.,12.0
1979-07-27 18:05:59.940 ,0,0,0.,12.0,0.,12.0,0.,12.0,0.,12.0
1979-07-27 18:06:11.940 ,0,0,0.,12.0,0.,12.0,0.,12.0,0.,12.0
1979-07-27 18:06:23.940 ,5,1,0.,12.0,0.,12.0,0.,12.0,0.,12.0
1979-07-27 18:06:35.940 ,5,1,0.,12.0,0.,12.0,0.,12.0,0.,12.0
1979-07-27 18:06:47.940 ,5,0,0.,12.0,0.,12.0,0.,12.0,0.,12.0
1979-07-27 18:06:59.940 ,5,0,0.,12.0,0.,12.0,0.,12.0,0.,12.0
1979-07-27 18:07:11.940 ,4,1,0.,12.0,0.,12.0,0.,12.0,0.,12.0
1979-07-27 18:07:23.940 ,4,1,0.,12.0,0.,12.0,0.,12.0,0.,12.0
1979-07-27 18:07:35.940 ,4,0,0.,12.0,0.,12.0,0.,12.0,0.,12.0
1979-07-27 18:07:47.940 ,4,0,0.,12.0,0.,12.0,0.,12.0,0.,12.0
1979-07-27 18:07:59.940 ,3,1,0.,12.0,0.,12.0,0.,12.0,0.,12.0
1979-07-27 18:08:11.940 ,3,1,0.,12.0,0.,12.0,0.,12.0,0.,12.0
1979-07-27 18:08:23.940 ,3,0,0.,12.0,0.,12.0,0.,12.0,0.,12.0
1979-07-27 18:08:35.940 ,3,0,0.,12.0,0.,12.0,0.,12.0,0.,12.0
1979-07-27 18:08:47.940 ,2,1,0.,12.0,0.,12.0,0.,12.0,0.,12.0
1979-07-27 18:08:59.940 ,2,1,0.,12.0,0.,12.0,0.,12.0,0.,12.0
1979-07-27 18:09:11.940 ,2,0,0.,12.0,0.,12.0,0.,12.0,0.,12.0
1979-07-27 18:09:23.940 ,2,0,0.,12.0,0.,12.0,0.,12.0,0.,12.0
1979-07-27 18:09:35.940 ,1,1,0.,12.0,0.,12.0,0.,12.0,0.,12.0
1979-07-27 18:09:47.940 ,1,1,0.,12.0,0.,12.0,0.,12.0,0.,12.0
1979-07-27 18:09:59.940 ,1,0,0.,12.0,0.,12.0,0.,12.0,0.,12.0
1979-07-27 18:10:11.940 ,1,0,0.,12.0,0.,12.0,0.,12.0,0.,12.0
1979-07-27 18:10:23.940 ,0,1,0.,12.0,0.,12.0,0.,12.0,0.,12.0
1979-07-27 18:10:35.940 ,0,1,0.,12.0,0.,12.0,0.,12.0,0.,12.0
1979-07-27 18:10:47.940 ,0,0,0.,12.0,0.,12.0,0.,12.0,0.,12.0
1979-07-27 18:10:59.940 ,0,0,0.,12.0,0.,12.0,0.,12.0,0.,12.0
1979-07-27 18:11:11.940 ,0,1,0.,12.0,0.,12.0,0.,12.0,0.,12.0
1979-07-27 18:11:23.940 ,0,1,0.,12.0,0.,12.0,0.,12.0,0.,12.0
1979-07-27 18:11:35.940 ,0,0,0.,12.0,0.,12.0,0.,12.0,0.,12.0
1979-07-27 18:11:47.940 ,0,0,0.,12.0,0.,12.0,0.,12.0,0.,12.0
1979-07-27 18:11:59.940 ,1,1,0.,12.0,0.,12.0,0.,12.0,0.,12.0
1979-07-27 18:12:11.940 ,1,1,0.,12.0,0.,12.0,0.,12.0,0.,12.0
1979-07-27 18:12:23.940 ,1,0,0.,12.0,0.,12.0,0.,12.0,0.,12.0
1979-07-27 18:12:35.940 ,1,0,0.,12.0,0.,12.0,0.,12.0,0.,12.0
1979-07-27 18:12:47.940 ,2,1,0.,12.0,0.,12.0,0.,12.0,0.,12.0
1979-07-27 18:12:59.940 ,2,1,0.,12.0,0.,12.0,0.,12.0,0.,12.0
1979-07-27 18:13:11.940 ,2,0,0.,12.0,0.,12.0,0.,12.0,0.,12.0
1979-07-27 18:13:23.940 ,2,0,0.,12.0,0.,12.0,0.,12.0,0.,12.0
1979-07-27 18:13:35.940 ,3,1,0.,12.0,0.,12.0,0.,12.0,0.,12.0
1979-07-27 18:13:47.940 ,3,1,0.,12.0,0.,12.0,0.,12.0,0.,12.0
1979-07-27 18:13:59.940 ,3,0,0.,12.0,0.,12.0,0.,12.0,0.,12.0
1979-07-27 18:14:11.940 ,3,0,0.,12.0,0.,12.0,0.,12.0,0.,12.0
1979-07-27 18:14:23.940 ,4,1,0.,12.0,0.,12.0,0.,12.0,0.,12.0
1979-07-27 18:14:35.940 ,4,1,0.,12.0,0.,12.0,0.,12.0,0.,12.0
1979-07-27 18:14:47.940 ,4,0,0.,12.0,0.,12.0,0.,12.0,0.,12.0
1979-07-27 18:14:59.940 ,4,0,0.,12.0,0.,12.0,0.,12.0,0.,12.0
1979-07-27 18:15:11.940 ,5,1,0.,12.0,0.,12.0,0.,12.0,0.,12.0
1979-07-27 18:15:23.940 ,5,1,0.,12.0,0.,12.0,0.,12.0,0.,12.0
1979-07-27 18:15:35.940 ,5,0,0.,12.0,0.,12.0,0.,12.0,0.,12.0
1979-07-27 18:15:47.940 ,5,0,0.,12.0,0.,12.0,0.,12.0,0.,12.0
1979-07-27 18:15:59.940 ,6,1,0.,12.0,0.,12.0,0.,12.0,0.,12.0
1979-07-27 18:16:11.940 ,6,1,0.,12.0,0.,12.0,0.,12.0,0.,12.0
1979-07-27 18:16:23.940 ,6,0,0.,12.0,0.,12.0,0.,12.0,0.,12.0
1979-07-27 18:16:35.940 ,6,0,0.,12.0,0.,12.0,0.,12.0,0.,12.0
1979-07-27 18:16:47.940 ,7,1,0.,12.0,0.,12.0,0.,12.0,0.,12.0
1979-07-27 18:16:59.940 ,7,1,0.,12.0,0.,12.0,0.,12.0,0.,12.0
1979-07-27 18:17:11.940 ,7,0,0.,12.0,0.,12.0,0.,12.0,0.,12.0
1979-07-27 18:17:23.940 ,7,0,0.,12.0,0.,12.0,0.,12.0,0.,12.0
1979-07-27 18:17:35.940 ,7,1,0.,12.0,0.,12.0,0.,12.0,0.,12.0
1979-07-27 18:17:47.940 ,7,1,0.,12.0,0.,12.0,0.,12.0,0.,12.0
1979-07-27 18:17:59.940 ,7,0,0.,12.0,0.,12.0,0.,12.0,0.,12.0
1979-07-27 18:18:11.940 ,7,0,0.,12.0,0.,12.0,0.,12.0,0.,12.0
1979-07-27 18:18:23.940 ,6,1,0.,12.0,0.,12.0,0.,12.0,0.,12.0
1979-07-27 18:18:35.940 ,6,1,0.,12.0,0.,12.0,0.,12.0,0.,12.0
1979-07-27 18:18:47.940 ,6,0,0.,12.0,0.,12.0,0.,12.0,0.,12.0
1979-07-27 18:18:59.940 ,6,0,0.,12.0,0.,12.0,0.,12.0,0.,12.0
1979-07-27 18:19:11.940 ,5,1,0.,12.0,0.,12.0,0.,12.0,0.,12.0
1979-07-27 18:19:23.940 ,5,1,0.,12.0,0.,12.0,0.,12.0,0.,12.0
1979-07-27 18:19:35.940 ,5,0,0.,12.0,0.,12.0,0.,12.0,0.,12.0
1979-07-27 18:19:47.940 ,5,0,0.,12.0,0.,12.0,0.,12.0,0.,12.0
1979-07-27 18:19:59.940 ,4,1,0.,12.0,0.,12.0,0.,12.0,0.,12.0
1979-07-27 18:20:11.940 ,4,1,0.,12.0,0.,12.0,0.,12.0,0.,12.0
1979-07-27 18:20:23.940 ,4,0,0.,12.0,0.,12.0,0.,12.0,0.,12.0
1979-07-27 18:20:35.940 ,4,0,0.,12.0,0.,12.0,0.,12.0,0.,12.0
1979-07-27 18:20:47.940 ,3,1,0.,12.0,0.,12.0,0.,12.0,0.,12.0
1979-07-27 18:20:59.940 ,3,1,0.,12.0,0.,12.0,0.,12.0,0.,12.0
1979-07-27 18:21:11.940 ,3,0,0.,12.0,0.,12.0,0.,12.0,0.,12.0
1979-07-27 18:21:23.940 ,3,0,0.,12.0,0.,12.0,0.,12.0,0.,12.0
1979-07-27 18:21:35.940 ,2,1,0.,12.0,0.,12.0,0.,12.0,0.,12.0
1979-07-27 18:21:47.940 ,2,1,0.,12.0,0.,12.0,0.,12.0,0.,12.0
1979-07-27 18:21:59.940 ,2,0,0.,12.0,0.,12.0,0.,12.0,0.,12.0
1979-07-27 18:22:11.940 ,2,0,0.,12.0,0.,12.0,0.,12.0,0.,12.0
1979-07-27 18:22:23.940 ,1,1,0.,12.0,0.,12.0,0.,12.0,0.,12.0
1979-07-27 18:22:35.940 ,1,1,0.,12.0,0.,12.0,0.,12.0,0.,12.0
1979-07-27 18:22:47.940 ,1,0,0.,12.0,0.,12.0,0.,12.0,0.,12.0
1979-07-27 18:22:59.940 ,1,0,0.,12.0,0.,12.0,0.,12.0,0.,12.0
1979-07-27 18:23:11.940 ,0,1,0.,12.0,0.,12.0,0.,12.0,0.,12.0
1979-07-27 18:23:23.940 ,0,1,0.,12.0,0.,12.0,0.,12.0,0.,12.0
1979-07-27 18:23:35.940 ,0,0,0.,12.0,0.,12.0,0.,12.0,0.,12.0
1979-07-27 18:23:47.940 ,0,0,0.,12.0,0.,12.0,0.,12.0,0.,12.0
1979-07-27 18:23:59.940 ,0,1,0.,12.0,0.,12.0,0.,12.0,0.,12.0
1979-07-27 18:24:11.940 ,0,1,0.,12.0,0.,12.0,0.,12.0,0.,12.0
1979-07-27 18:24:23.940 ,0,0,0.,12.0,0.,12.0,0.,12.0,0.,12.0
1979-07-27 18:24:35.940 ,0,0,0.,12.0,0.,12.0,0.,12.0,0.,12.0
1979-07-27 18:24:47.940 ,1,1,0.,12.0,0.,12.0,0.,12.0,0.,12.0
1979-07-27 18:24:59.940 ,1,1,0.,12.0,0.,12.0,0.,12.0,0.,12.0
1979-07-27 18:25:11.940 ,1,0,0.,12.0,0.,12.0,0.,12.0,0.,12.0
1979-07-27 18:25:23.940 ,1,0,0.,12.0,0.,12.0,0.,12.0,0.,12.0
1979-07-27 18:25:35.940 ,2,1,0.,12.0,0.,12.0,0.,12.0,0.,12.0
1979-07-27 18:25:47.940 ,2,1,0.,12.0,0.,12.0,0.,12.0,0.,12.0
1979-07-27 18:25:59.940 ,2,0,0.,12.0,0.,12.0,0.,12.0,0.,12.0
1979-07-27 18:26:11.940 ,2,0,0.,12.0,0.,12.0,0.,12.0,0.,12.0
1979-07-27 18:26:23.940 ,3,1,0.,12.0,0.,12.0,0.,12.0,0.,12.0
1979-07-27 18:26:35.940 ,3,1,0.,12.0,0.,12.0,0.,12.0,0.,12.0
1979-07-27 18:26:47.940 ,3,0,0.,12.0,0.,12.0,0.,12.0,0.,12.0
1979-07-27 18:26:59.940 ,3,0,0.,12.0,0.,12.0,0.,12.0,0.,12.0
1979-07-27 18:27:11.940 ,4,1,0.,12.0,0.,12.0,0.,12.0,0.,12.0
1979-07-27 18:27:23.940 ,4,1,0.,12.0,0.,12.0,0.,12.0,0.,12.0
1979-07-27 18:27:35.940 ,4,0,0.,12.0,0.,12.0,0.,12.0,0.,12.0
1979-07-27 18:27:47.940 ,4,0,0.,12.0,0.,12.0,0.,12.0,0.,12.0
1979-07-27 18:27:59.940 ,5,1,0.,12.0,0.,12.0,0.,12.0,0.,12.0
1979-07-27 18:28:11.940 ,5,1,0.,12.0,0.,12.0,0.,12.0,0.,12.0
1979-07-27 18:28:23.940 ,5,0,0.,12.0,0.,12.0,0.,12.0,0.,12.0
1979-07-27 18:28:35.940 ,5,0,0.,12.0,0.,12.0,0.,12.0,0.,12.0
1979-07-27 18:28:47.940 ,6,1,0.,12.0,0.,12.0,0.,12.0,0.,12.0
1979-07-27 18:28:59.940 ,6,1,0.,12.0,0.,12.0,0.,12.0,0.,12.0
1979-07-27 18:29:11.940 ,6,0,0.,12.0,0.,12.0,0.,12.0,0.,12.0
1979-07-27 18:29:23.940 ,6,0,0.,12.0,0.,12.0,0.,12.0,0.,12.0
1979-07-27 18:29:35.940 ,7,1,0.,12.0,0.,12.0,0.,12.0,0.,12.0
1979-07-27 18:29:47.940 ,7,1,0.,12.0,0.,12.0,0.,12.0,0.,12.0
1979-07-27 18:29:59.940 ,7,0,0.,12.0,0.,12.0,0.,12.0,0.,12.0
1979-07-27 18:30:11.940 ,7,0,0.,12.0,0.,12.0,0.,12.0,0.,12.0
1979-07-27 18:30:23.940 ,7,1,0.,12.0,0.,12.0,0.,12.0,0.,12.0
1979-07-27 18:30:35.940 ,7,1,0.,12.0,0.,12.0,0.,12.0,0.,12.0
1979-07-27 18:30:47.940 ,7,0,0.,12.0,0.,12.0,0.,12.0,0.,12.0
1979-07-27 18:30:59.940 ,7,0,0.,12.0,0.,12.0,0.,12.0,0.,12.0
1979-07-27 18:31:11.940 ,6,1,0.,12.0,0.,12.0,0.,12.0,0.,12.0
1979-07-27 18:31:23.940 ,6,1,0.,12.0,0.,12.0,0.,12.0,0.,12.0
1979-07-27 18:31:35.940 ,6,0,0.,12.0,0.,12.0,0.,12.0,0.,12.0
1979-07-27 18:31:47.940 ,6,0,0.,12.0,0.,12.0,0.,12.0,0.,12.0
1979-07-27 18:31:59.940 ,5,1,0.,12.0,0.,12.0,0.,12.0,0.,12.0
1979-07-27 18:32:11.940 ,5,1,0.,12.0,0.,12.0,0.,12.0,0.,12.0
1979-07-27 18:32:23.940 ,5,0,0.,12.0,0.,12.0,0.,12.0,0.,12.0
1979-07-27 18:32:35.940 ,5,0,0.,12.0,0.,12.0,0.,12.0,0.,12.0
1979-07-27 18:32:47.940 ,4,1,0.,12.0,0.,12.0,0.,12.0,0.,12.0
1979-07-27 18:32:59.940 ,4,1,0.,12.0,0.,12.0,0.,12.0,0.,12.0
1979-07-27 18:33:11.940 ,4,0,0.,12.0,0.,12.0,0.,12.0,0.,12.0
1979-07-27 18:33:23.940 ,4,0,0.,12.0,0.,12.0,0.,12.0,0.,12.0
1979-07-27 18:33:35.940 ,3,1,0.,12.0,0.,12.0,0.,12.0,0.,12.0
1979-07-27 18:33:47.940 ,3,1,0.,12.0,0.,12.0,0.,12.0,0.,12.0
1979-07-27 18:33:59.940 ,3,0,0.,12.0,0.,12.0,0.,12.0,0.,12.0
1979-07-27 18:34:11.940 ,3,0,0.,12.0,0.,12.0,0.,12.0,0.,12.0
1979-07-27 18:34:23.940 ,2,1,0.,12.0,0.,12.0,0.,12.0,0.,12.0
1979-07-27 18:34:35.940 ,2,1,0.,12.0,0.,12.0,0.,12.0,0.,12.0
1979-07-27 18:34:47.940 ,2,0,0.,12.0,0.,12.0,0.,12.0,0.,12.0
1979-07-27 18:34:59.940 ,2,0,0.,12.0,0.,12.0,0.,12.0,0.,12.0
1979-07-27 18:35:11.940 ,1,1,0.,12.0,0.,12.0,0.,12.0,0.,12.0
1979-07-27 18:35:23.940 ,1,1,0.,12.0,0.,12.0,0.,12.0,0.,12.0
1979-07-27 18:35:35.940 ,1,0,0.,12.0,0.,12.0,0.,12.0,0.,12.0
1979-07-27 18:35:47.940 ,1,0,0.,12.0,0.,12.0,0.,12.0,0.,12.0
1979-07-27 18:35:59.940 ,0,1,0.,12.0,0.,12.0,0.,12.0,0.,12.0
1979-07-27 18:36:11.940 ,0,1,0.,12.0,0.,12.0,0.,12.0,0.,12.0
1979-07-27 18:36:23.940 ,0,0,0.,12.0,0.,12.0,0.,12.0,0.,12.0
1979-07-27 18:36:35.940 ,0,0,0.,12.0,0.,12.0,0.,12.0,0.,12.0
1979-07-27 18:36:47.940 ,0,1,0.,12.0,0.,12.0,0.,12.0,0.,12.0
1979-07-27 18:36:59.940 ,0,1,0.,12.0,0.,12.0,0.,12.0,0.,12.0
1979-07-27 18:37:11.940 ,0,0,0.,12.0,0.,12.0,0.,12.0,0.,12.0
1979-07-27 18:37:23.940 ,0,0,0.,12.0,0.,12.0,0.,12.0,0.,12.0
1979-07-27 18:37:35.940 ,1,1,0.,12.0,0.,12.0,0.,12.0,0.,12.0
1979-07-27 18:37:47.940 ,1,1,0.,12.0,0.,12.0,0.,12.0,0.,12.0
1979-07-27 18:37:59.940 ,1,0,0.,12.0,0.,12.0,0.,12.0,0.,12.0
1979-07-27 18:38:11.940 ,1,0,0.,12.0,0.,12.0,0.,12.0,0.,12.0
1979-07-27 18:38:23.940 ,2,1,0.,12.0,0.,12.0,0.,12.0,0.,12.0
1979-07-27 18:38:35.940 ,2,1,0.,12.0,0.,12.0,0.,12.0,0.,12.0
1979-07-27 18:38:47.940 ,2,0,0.,12.0,0.,12.0,0.,12.0,0.,12.0
1979-07-27 18:38:59.940 ,2,0,0.,12.0,0.,12.0,0.,12.0,0.,12.0
1979-07-27 18:39:11.940 ,3,1,0.,12.0,0.,12.0,0.,12.0,0.,12.0
1979-07-27 18:39:23.940 ,3,1,0.,12.0,0.,12.0,0.,12.0,0.,12.0
1979-07-27 18:39:35.940 ,3,0,0.,12.0,0.,12.0,0.,12.0,0.,12.0
1979-07-27 18:39:47.940 ,3,0,0.,12.0,0.,12.0,0.,12.0,0.,12.0
1979-07-27 18:39:59.940 ,4,1,0.,12.0,0.,12.0,0.,12.0,0.,12.0
1979-07-27 18:40:11.940 ,4,1,0.,12.0,0.,12.0,0.,12.0,0.,12.0
1979-07-27 18:40:23.940 ,4,0,0.,12.0,0.,12.0,0.,12.0,0.,12.0
1979-07-27 18:40:35.940 ,4,0,0.,12.0,0.,12.0,0.,12.0,0.,12.0
1979-07-27 18:40:47.940 ,5,1,0.,12.0,0.,12.0,0.,12.0,0.,12.0
1979-07-27 18:40:59.940 ,5,1,0.,12.0,0.,12.0,0.,12.0,0.,12.0
1979-07-27 18:41:11.940 ,5,0,0.,12.0,0.,12.0,0.,12.0,0.,12.0
1979-07-27 18:41:23.940 ,5,0,0.,12.0,0.,12.0,0.,12.0,0.,12.0
1979-07-27 18:41:35.940 ,6,1,0.,12.0,0.,12.0,0.,12.0,0.,12.0
1979-07-27 18:41:47.940 ,6,1,0.,12.0,0.,12.0,0.,12.0,0.,12.0
1979-07-27 18:41:59.940 ,6,0,0.,12.0,0.,12.0,0.,12.0,0.,12.0
1979-07-27 18:42:11.940 ,6,0,0.,12.0,0.,12.0,0.,12.0,0.,12.0
1979-07-27 18:42:23.940 ,7,0,0.,12.0,0.,12.0,0.,12.0,0.,12.0
1979-07-27 18:42:35.940 ,7,0,0.,12.0,0.,12.0,0.,12.0,0.,12.0
1979-07-27 18:42:47.940 ,7,0,0.,12.0,0.,12.0,0.,12.0,0.,12.0
1979-07-27 18:42:59.940 ,7,0,0.,12.0,0.,12.0,0.,12.0,0.,12.0
1979-07-27 18:43:11.940 ,4,1,0.,12.0,0.,12.0,0.,12.0,0.,12.0
1979-07-27 18:43:23.940 ,4,1,0.,12.0,0.,12.0,0.,12.0,0.,12.0
1979-07-27 18:43:35.940 ,0,1,0.,12.0,0.,12.0,0.,12.0,0.,12.0
1979-07-27 18:43:47.940 ,0,1,0.,12.0,0.,12.0,0.,12.0,0.,12.0
1979-07-27 18:43:59.940 ,3,1,0.,12.0,0.,12.0,0.,12.0,0.,12.0
1979-07-27 18:44:11.940 ,3,1,0.,12.0,0.,12.0,0.,12.0,0.,12.0
1979-07-27 18:44:23.940 ,7,1,0.,12.0,0.,12.0,0.,12.0,0.,12.0
1979-07-27 18:44:35.940 ,7,1,0.,12.0,0.,12.0,0.,12.0,0.,12.0
1979-07-27 18:44:47.940 ,4,1,0.,12.0,0.,12.0,0.,12.0,0.,12.0
1979-07-27 18:44:59.940 ,4,1,0.,12.0,0.,12.0,0.,12.0,0.,12.0
1979-07-27 18:45:11.940 ,0,1,0.,12.0,0.,12.0,0.,12.0,0.,12.0
1979-07-27 18:45:23.940 ,0,1,0.,12.0,0.,12.0,0.,12.0,0.,12.0
1979-07-27 18:45:35.940 ,3,1,0.,12.0,0.,12.0,0.,12.0,0.,12.0
1979-07-27 18:45:47.940 ,3,1,0.,12.0,0.,12.0,0.,12.0,0.,12.0
1979-07-27 18:45:59.940 ,7,1,0.,12.0,0.,12.0,0.,12.0,0.,12.0
1979-07-27 18:46:11.940 ,7,1,0.,12.0,0.,12.0,0.,12.0,0.,12.0
1979-07-27 18:46:23.940 ,4,1,0.,12.0,0.,12.0,0.,12.0,0.,12.0
1979-07-27 18:46:35.940 ,4,1,0.,12.0,0.,12.0,0.,12.0,0.,12.0
1979-07-27 18:46:47.940 ,0,1,0.,12.0,0.,12.0,0.,12.0,0.,12.0
1979-07-27 18:46:59.940 ,0,1,0.,12.0,0.,12.0,0.,12.0,0.,12.0
1979-07-27 18:47:11.940 ,3,1,0.,12.0,0.,12.0,0.,12.0,0.,12.0
1979-07-27 18:47:23.940 ,3,1,0.,12.0,0.,12.0,0.,12.0,0.,12.0
1979-07-27 18:47:35.940 ,7,1,0.,12.0,0.,12.0,0.,12.0,0.,12.0
1979-07-27 18:47:47.940 ,7,1,0.,12.0,0.,12.0,0.,12.0,0.,12.0
1979-07-27 18:47:59.940 ,4,1,0.,12.0,0.,12.0,0.,12.0,0.,12.0
1979-07-27 18:48:11.940 ,4,1,0.,12.0,0.,12.0,0.,12.0,0.,12.0
1979-07-27 18:48:23.940 ,0,1,0.,12.0,0.,12.0,0.,12.0,0.,12.0
1979-07-27 18:48:35.940 ,0,1,0.,12.0,0.,12.0,0.,12.0,0.,12.0
1979-07-27 18:48:47.940 ,3,1,0.,12.0,0.,12.0,0.,12.0,0.,12.0
1979-07-27 18:48:59.940 ,3,1,0.,12.0,0.,12.0,0.,12.0,0.,12.0
1979-07-27 18:49:11.940 ,7,1,0.,12.0,0.,12.0,0.,12.0,0.,12.0
1979-07-27 18:49:23.940 ,7,1,0.,12.0,0.,12.0,0.,12.0,0.,12.0
1979-07-27 18:49:35.940 ,4,1,0.,12.0,0.,12.0,0.,12.0,0.,12.0
1979-07-27 18:49:47.940 ,4,1,0.,12.0,0.,12.0,0.,12.0,0.,12.0
1979-07-27 18:49:59.940 ,0,1,0.,12.0,0.,12.0,0.,12.0,0.,12.0
1979-07-27 18:50:11.940 ,0,1,0.,12.0,0.,12.0,0.,12.0,0.,12.0
1979-07-27 18:50:23.940 ,3,1,0.,12.0,0.,12.0,0.,12.0,0.,12.0
1979-07-27 18:50:35.940 ,3,1,0.,12.0,0.,12.0,0.,12.0,0.,12.0
1979-07-27 18:50:47.940 ,7,1,0.,12.0,0.,12.0,0.,12.0,0.,12.0
1979-07-27 18:50:59.940 ,7,1,0.,12.0,0.,12.0,0.,12.0,0.,12.0
1979-07-27 18:51:11.940 ,4,1,0.,12.0,0.,12.0,0.,12.0,0.,12.0
1979-07-27 18:51:23.940 ,4,1,0.,12.0,0.,12.0,0.,12.0,0.,12.0
1979-07-27 18:51:35.940 ,0,1,0.,12.0,0.,12.0,0.,12.0,0.,12.0
1979-07-27 18:51:47.940 ,0,1,0.,12.0,0.,12.0,0.,12.0,0.,12.0
1979-07-27 18:51:59.940 ,3,1,0.,12.0,0.,12.0,0.,12.0,0.,12.0
1979-07-27 18:52:11.940 ,3,1,0.,12.0,0.,12.0,0.,12.0,0.,12.0
1979-07-27 18:52:23.940 ,7,1,0.,12.0,0.,12.0,0.,12.0,0.,12.0
1979-07-27 18:52:35.940 ,7,1,0.,12.0,0.,12.0,0.,12.0,0.,12.0
1979-07-27 18:52:47.940 ,4,1,0.,12.0,0.,12.0,0.,12.0,0.,12.0
1979-07-27 18:52:59.940 ,4,1,0.,12.0,0.,12.0,0.,12.0,0.,12.0
1979-07-27 18:53:11.940 ,0,1,0.,12.0,0.,12.0,0.,12.0,0.,12.0
1979-07-27 18:53:23.940 ,0,1,0.,12.0,0.,12.0,0.,12.0,0.,12.0
1979-07-27 18:53:35.940 ,0,0,0.,12.0,0.,12.0,0.,12.0,0.,12.0
1979-07-27 18:53:47.940 ,0,0,0.,12.0,0.,12.0,0.,12.0,0.,12.0
1979-07-27 18:53:59.940 ,0,0,0.,12.0,0.,12.0,0.,12.0,0.,12.0
1979-07-27 18:54:11.940 ,0,0,0.,12.0,0.,12.0,0.,12.0,0.,12.0
1979-07-27 18:54:23.940 ,5,1,0.,12.0,0.,12.0,0.,12.0,0.,12.0
1979-07-27 18:54:35.940 ,5,1,0.,12.0,0.,12.0,0.,12.0,0.,12.0
1979-07-27 18:54:47.940 ,5,0,0.,12.0,0.,12.0,0.,12.0,0.,12.0
1979-07-27 18:54:59.940 ,5,0,0.,12.0,0.,12.0,0.,12.0,0.,12.0
1979-07-27 18:55:11.940 ,4,1,0.,12.0,0.,12.0,0.,12.0,0.,12.0
1979-07-27 18:55:23.940 ,4,1,0.,12.0,0.,12.0,0.,12.0,0.,12.0
1979-07-27 18:55:35.940 ,4,0,0.,12.0,0.,12.0,0.,12.0,0.,12.0
1979-07-27 18:55:47.940 ,4,0,0.,12.0,0.,12.0,0.,12.0,0.,12.0
1979-07-27 18:55:59.940 ,3,1,0.,12.0,0.,12.0,0.,12.0,0.,12.0
1979-07-27 18:56:11.940 ,3,1,0.,12.0,0.,12.0,0.,12.0,0.,12.0
1979-07-27 18:56:23.940 ,3,0,0.,12.0,0.,12.0,0.,12.0,0.,12.0
1979-07-27 18:56:35.940 ,3,0,0.,12.0,0.,12.0,0.,12.0,0.,12.0
1979-07-27 18:56:47.940 ,2,1,0.,12.0,0.,12.0,0.,12.0,0.,12.0
1979-07-27 18:56:59.940 ,2,1,0.,12.0,0.,12.0,0.,12.0,0.,12.0
1979-07-27 18:57:11.940 ,2,0,0.,12.0,0.,12.0,0.,12.0,0.,12.0
1979-07-27 18:57:23.940 ,2,0,0.,12.0,0.,12.0,0.,12.0,0.,12.0
1979-07-27 18:57:35.940 ,1,1,0.,12.0,0.,12.0,0.,12.0,0.,12.0
1979-07-27 18:57:47.940 ,1,1,0.,12.0,0.,12.0,0.,12.0,0.,12.0
1979-07-27 18:57:59.940 ,1,0,0.,12.0,0.,12.0,0.,12.0,0.,12.0
1979-07-27 18:58:11.940 ,1,0,0.,12.0,0.,12.0,0.,12.0,0.,12.0
1979-07-27 18:58:23.940 ,0,1,1.,12.0,0.,12.0,0.,12.0,0.,12.0
1979-07-27 18:58:35.940 ,0,1,0.,12.0,0.,12.0,0.,12.0,0.,12.0
1979-07-27 18:58:47.940 ,0,0,0.,12.0,0.,12.0,0.,12.0,0.,12.0
1979-07-27 18:58:59.940 ,0,0,0.,12.0,0.,12.0,0.,12.0,0.,12.0
1979-07-27 18:59:11.940 ,0,1,0.,12.0,0.,12.0,0.,12.0,0.,12.0
1979-07-27 18:59:23.940 ,0,1,0.,12.0,0.,12.0,0.,12.0,0.,12.0
1979-07-27 18:59:35.940 ,0,0,0.,12.0,0.,12.0,0.,12.0,0.,12.0
1979-07-27 18:59:47.940 ,0,0,0.,12.0,0.,12.0,0.,12.0,0.,12.0
1979-07-27 18:59:59.940 ,1,1,0.,12.0,0.,12.0,0.,12.0,0.,12.0
1979-07-27 19:00:11.940 ,1,1,0.,12.0,0.,12.0,0.,12.0,0.,12.0
1979-07-27 19:00:23.940 ,1,0,0.,12.0,0.,12.0,0.,12.0,0.,12.0
1979-07-27 19:00:35.940 ,1,0,0.,12.0,0.,12.0,0.,12.0,0.,12.0
1979-07-27 19:00:47.940 ,2,1,0.,12.0,0.,12.0,0.,12.0,0.,12.0
1979-07-27 19:00:59.940 ,2,1,0.,12.0,0.,12.0,0.,12.0,0.,12.0
1979-07-27 19:01:11.940 ,2,0,0.,12.0,0.,12.0,0.,12.0,0.,12.0
1979-07-27 19:01:23.940 ,2,0,0.,12.0,0.,12.0,0.,12.0,0.,12.0
1979-07-27 19:01:35.940 ,3,1,0.,12.0,0.,12.0,0.,12.0,0.,12.0
1979-07-27 19:01:47.940 ,3,1,0.,12.0,0.,12.0,0.,12.0,0.,12.0
1979-07-27 19:01:59.940 ,3,0,0.,12.0,0.,12.0,0.,12.0,0.,12.0
1979-07-27 19:02:11.940 ,3,0,0.,12.0,0.,12.0,0.,12.0,0.,12.0
1979-07-27 19:02:23.940 ,4,1,0.,12.0,0.,12.0,0.,12.0,0.,12.0
1979-07-27 19:02:35.940 ,4,1,1.,12.0,0.,12.0,0.,12.0,0.,12.0
1979-07-27 19:02:47.940 ,4,0,0.,12.0,0.,12.0,0.,12.0,0.,12.0
1979-07-27 19:02:59.940 ,4,0,0.,12.0,0.,12.0,0.,12.0,0.,12.0
1979-07-27 19:03:11.940 ,5,1,0.,12.0,0.,12.0,0.,12.0,0.,12.0
1979-07-27 19:03:23.940 ,5,1,0.,12.0,0.,12.0,0.,12.0,0.,12.0
1979-07-27 19:03:35.940 ,5,0,0.,12.0,0.,12.0,0.,12.0,0.,12.0
1979-07-27 19:03:47.940 ,5,0,0.,12.0,0.,12.0,0.,12.0,0.,12.0
1979-07-27 19:03:59.940 ,6,1,0.,12.0,0.,12.0,0.,12.0,0.,12.0
1979-07-27 19:04:11.940 ,6,1,0.,12.0,0.,12.0,0.,12.0,0.,12.0
1979-07-27 19:04:23.940 ,6,0,0.,12.0,0.,12.0,0.,12.0,0.,12.0
1979-07-27 19:04:35.940 ,6,0,0.,12.0,0.,12.0,0.,12.0,0.,12.0
1979-07-27 19:04:47.940 ,7,1,0.,12.0,0.,12.0,0.,12.0,0.,12.0
1979-07-27 19:04:59.940 ,7,1,0.,12.0,0.,12.0,0.,12.0,0.,12.0
1979-07-27 19:05:11.940 ,7,0,0.,12.0,0.,12.0,0.,12.0,0.,12.0
1979-07-27 19:05:23.940 ,7,0,0.,12.0,0.,12.0,0.,12.0,0.,12.0
1979-07-27 19:05:35.940 ,7,1,0.,12.0,0.,12.0,0.,12.0,0.,12.0
1979-07-27 19:05:47.940 ,7,1,0.,12.0,0.,12.0,0.,12.0,0.,12.0
1979-07-27 19:05:59.940 ,7,0,0.,12.0,0.,12.0,0.,12.0,0.,12.0
1979-07-27 19:06:11.940 ,7,0,0.,12.0,0.,12.0,0.,12.0,0.,12.0
1979-07-27 19:06:23.940 ,6,1,0.,12.0,0.,12.0,0.,12.0,0.,12.0
1979-07-27 19:06:35.940 ,6,1,0.,12.0,0.,12.0,0.,12.0,0.,12.0
1979-07-27 19:06:47.940 ,6,0,0.,12.0,0.,12.0,0.,12.0,0.,12.0
1979-07-27 19:06:59.940 ,6,0,0.,12.0,0.,12.0,0.,12.0,0.,12.0
1979-07-27 19:07:11.940 ,5,1,0.,12.0,0.,12.0,0.,12.0,0.,12.0
1979-07-27 19:07:23.940 ,5,1,0.,12.0,0.,12.0,0.,12.0,0.,12.0
1979-07-27 19:07:35.940 ,5,0,0.,12.0,0.,12.0,0.,12.0,0.,12.0
1979-07-27 19:07:47.940 ,5,0,0.,12.0,0.,12.0,0.,12.0,0.,12.0
1979-07-27 19:07:59.940 ,4,1,0.,12.0,0.,12.0,0.,12.0,0.,12.0
1979-07-27 19:08:11.940 ,4,1,0.,12.0,0.,12.0,0.,12.0,0.,12.0
1979-07-27 19:08:23.940 ,4,0,0.,12.0,0.,12.0,0.,12.0,0.,12.0
1979-07-27 19:08:35.940 ,4,0,0.,12.0,0.,12.0,0.,12.0,0.,12.0
1979-07-27 19:08:47.940 ,3,1,0.,12.0,0.,12.0,0.,12.0,0.,12.0
1979-07-27 19:08:59.940 ,3,1,0.,12.0,0.,12.0,0.,12.0,0.,12.0
1979-07-27 19:09:11.940 ,3,0,0.,12.0,0.,12.0,0.,12.0,0.,12.0
1979-07-27 19:09:23.940 ,3,0,0.,12.0,0.,12.0,0.,12.0,0.,12.0
1979-07-27 19:09:35.940 ,2,1,0.,12.0,0.,12.0,0.,12.0,0.,12.0
1979-07-27 19:09:47.940 ,2,1,0.,12.0,0.,12.0,0.,12.0,0.,12.0
1979-07-27 19:09:59.940 ,2,0,0.,12.0,0.,12.0,0.,12.0,0.,12.0
1979-07-27 19:10:11.940 ,2,0,0.,12.0,0.,12.0,0.,12.0,0.,12.0
1979-07-27 19:10:23.940 ,1,1,0.,12.0,0.,12.0,0.,12.0,0.,12.0
1979-07-27 19:10:35.940 ,1,1,0.,12.0,0.,12.0,0.,12.0,0.,12.0
1979-07-27 19:10:47.940 ,1,0,0.,12.0,0.,12.0,0.,12.0,0.,12.0
1979-07-27 19:10:59.940 ,1,0,0.,12.0,0.,12.0,0.,12.0,0.,12.0
1979-07-27 19:11:11.940 ,0,1,0.,12.0,0.,12.0,0.,12.0,0.,12.0
1979-07-27 19:11:23.940 ,0,1,0.,12.0,0.,12.0,0.,12.0,0.,12.0
1979-07-27 19:11:35.940 ,0,0,0.,12.0,0.,12.0,0.,12.0,0.,12.0
1979-07-27 19:11:47.940 ,0,0,0.,12.0,0.,12.0,0.,12.0,0.,12.0
1979-07-27 19:11:59.940 ,0,1,0.,12.0,0.,12.0,0.,12.0,0.,12.0
1979-07-27 19:12:11.940 ,0,1,0.,12.0,0.,12.0,0.,12.0,0.,12.0
1979-07-27 19:12:23.940 ,0,0,0.,12.0,0.,12.0,0.,12.0,0.,12.0
1979-07-27 19:12:35.940 ,0,0,0.,12.0,0.,12.0,0.,12.0,0.,12.0
1979-07-27 19:12:47.940 ,1,1,0.,12.0,0.,12.0,0.,12.0,0.,12.0
1979-07-27 19:12:59.940 ,1,1,0.,12.0,0.,12.0,0.,12.0,0.,12.0
1979-07-27 19:13:11.940 ,1,0,0.,12.0,0.,12.0,0.,12.0,0.,12.0
1979-07-27 19:13:23.940 ,1,0,0.,12.0,0.,12.0,0.,12.0,0.,12.0
1979-07-27 19:13:35.940 ,2,1,0.,12.0,0.,12.0,0.,12.0,0.,12.0
1979-07-27 19:13:47.940 ,2,1,0.,12.0,0.,12.0,0.,12.0,0.,12.0
1979-07-27 19:13:59.940 ,2,0,0.,12.0,0.,12.0,0.,12.0,0.,12.0
1979-07-27 19:14:11.940 ,2,0,0.,12.0,0.,12.0,0.,12.0,0.,12.0
1979-07-27 19:14:23.940 ,3,1,0.,12.0,0.,12.0,0.,12.0,0.,12.0
1979-07-27 19:14:35.940 ,3,1,0.,12.0,0.,12.0,0.,12.0,0.,12.0
1979-07-27 19:14:47.940 ,3,0,0.,12.0,0.,12.0,0.,12.0,0.,12.0
1979-07-27 19:14:59.940 ,3,0,0.,12.0,0.,12.0,0.,12.0,0.,12.0
1979-07-27 19:15:11.940 ,4,1,0.,12.0,0.,12.0,0.,12.0,0.,12.0
1979-07-27 19:15:23.940 ,4,1,0.,12.0,0.,12.0,0.,12.0,0.,12.0
1979-07-27 19:15:35.940 ,4,0,0.,12.0,0.,12.0,0.,12.0,0.,12.0
1979-07-27 19:15:47.940 ,4,0,0.,12.0,0.,12.0,0.,12.0,0.,12.0
1979-07-27 19:15:59.940 ,5,1,0.,12.0,0.,12.0,0.,12.0,0.,12.0
1979-07-27 19:16:11.940 ,5,1,0.,12.0,0.,12.0,0.,12.0,0.,12.0
1979-07-27 19:16:23.940 ,5,0,0.,12.0,0.,12.0,0.,12.0,0.,12.0
1979-07-27 19:16:35.940 ,5,0,0.,12.0,0.,12.0,0.,12.0,0.,12.0
1979-07-27 19:16:47.940 ,6,1,0.,12.0,0.,12.0,0.,12.0,0.,12.0
1979-07-27 19:16:59.940 ,6,1,0.,12.0,0.,12.0,0.,12.0,0.,12.0
1979-07-27 19:17:11.940 ,6,0,0.,12.0,0.,12.0,0.,12.0,0.,12.0
1979-07-27 19:17:23.940 ,6,0,0.,12.0,0.,12.0,0.,12.0,0.,12.0